Theta_e
314 316 318 318 317 314 316 315 315 315 314 315 315 315 316 317 322 323 326 329 330 329 327 325 322 321 320 321 321 320 319 318 319 319 321 322 322 321 322 320 317 316 315 314
314 318 316 315 316 317 315 315 316 315 314 315 316 317 317 317 319 323 325 328 330 330 327 325 323 322 320 321 321 321 320 319 319 319 321 321 321 322 321 317 319 317 315 315
314 316 315 315 315 317 318 318 318 316 314 315 315 317 318 318 320 321 324 326 329 330 329 326 324 322 320 321 321 321 320 320 319 320 320 320 320 321 319 318 316 317 318 316
313 313 314 315 315 316 317 316 316 317 317 317 316 319 318 319 318 320 322 325 328 330 329 327 324 322 321 320 321 321 320 320 319 319 320 319 319 320 319 318 315 314 315 318
315 314 313 315 315 315 316 315 316 317 317 316 315 318 319 317 320 321 321 323 325 327 330 329 325 322 320 319 320 321 320 320 319 319 320 320 321 320 319 319 317 317 318 317
311 311 313 313 314 315 316 316 316 316 317 319 317 319 321 321 321 321 320 320 323 326 328 328 325 323 319 319 318 319 319 321 321 320 320 320 321 321 320 319 319 320 321 320
310 311 312 313 314 315 316 318 319 323 323 318 320 321 321 320 318 319 321 320 321 324 327 328 326 321 319 318 317 318 318 320 320 319 319 319 320 320 320 321 321 320 321 321
310 310 313 313 315 316 317 318 318 318 323 320 319 323 321 321 320 319 319 319 318 323 326 327 326 323 320 318 317 317 319 320 320 320 318 317 318 319 319 319 320 320 320 321
310 309 310 312 315 316 317 318 316 320 324 326 323 322 320 321 319 318 318 317 318 322 325 326 325 324 322 319 318 318 319 320 319 319 319 318 317 318 318 319 319 321 320 319
313 314 313 312 312 314 317 317 319 319 320 323 323 324 322 320 320 319 320 320 319 320 324 325 325 324 323 321 319 318 319 319 319 319 319 318 318 317 317 318 318 318 318 318
312 313 316 314 314 314 314 317 320 319 321 321 323 323 321 322 321 322 321 318 317 322 324 325 325 324 323 321 319 318 318 318 318 318 318 318 318 318 317 317 318 317 317 317
316 315 314 313 314 313 314 315 317 324 325 323 322 322 318 320 321 319 319 317 315 318 323 325 325 324 322 321 319 318 318 318 317 316 316 317 317 318 317 316 316 317 317 317
312 319 317 314 312 312 314 316 316 317 320 324 328 323 319 318 319 319 319 320 318 316 322 325 325 324 323 322 320 319 318 318 317 316 315 315 316 317 317 316 317 317 317 317
313 315 320 319 316 315 315 317 317 319 322 321 322 321 321 321 321 321 319 319 318 316 319 323 325 325 323 322 320 319 318 317 317 316 316 316 315 315 315 316 317 318 319 319
315 312 313 317 316 318 318 315 316 320 320 322 321 321 321 321 321 320 318 318 317 316 316 320 323 324 324 323 321 319 318 317 317 317 316 316 316 316 316 317 318 319 320 320
311 315 316 317 317 318 318 317 314 317 317 318 318 320 318 319 319 319 319 318 318 317 315 317 318 319 322 322 322 320 319 317 316 316 317 317 317 317 318 319 319 319 320 320
307 315 318 317 317 317 319 317 316 316 317 318 320 319 319 319 319 319 318 317 317 318 316 315 317 318 319 319 320 321 320 319 318 317 318 318 318 318 319 319 319 319 320 321
309 312 315 317 318 324 318 316 316 317 317 318 318 318 319 319 318 317 317 317 316 316 317 315 314 316 318 318 318 319 319 320 320 320 320 320 319 319 318 318 319 320 320 317
308 309 316 319 321 317 319 319 320 319 319 317 317 317 317 317 315 318 314 312 313 314 315 316 314 314 318 319 318 318 318 319 319 318 317 317 317 317 317 316 315 313 310 308
307 308 316 318 320 319 318 317 317 318 322 318 318 318 318 314 320 318 314 315 313 313 312 311 312 316 318 317 318 317 317 316 314 314 315 317 317 316 313 311 308 305 304 302
313 315 316 316 318 319 317 316 317 321 322 318 319 319 317 319 319 318 315 315 314 317 316 315 316 316 317 317 317 316 315 313 313 313 313 312 311 310 308 305 303 302 300 298
316 317 317 316 319 320 316 319 321 320 318 319 318 318 319 318 316 317 315 316 317 316 314 315 315 315 314 315 315 314 311 309 309 307 306 305 305 303 302 302 300 298 297 294
310 314 316 317 318 315 314 318 318 318 319 320 319 318 320 319 318 318 317 315 314 313 312 311 312 312 313 312 311 308 306 306 305 304 302 302 302 301 300 300 296 294 293 290
307 309 314 314 312 313 313 313 314 315 317 318 317 316 316 317 315 315 315 313 312 312 311 308 308 307 305 307 306 305 304 305 304 300 298 298 298 296 296 295 294 292 291 289
307 308 311 312 311 313 312 312 312 312 311 312 315 315 314 314 315 314 313 310 307 307 307 306 305 303 302 302 302 302 301 300 297 295 293 291 291 290 289 289 289 290 290 291
308 310 312 312 310 311 311 310 308 309 311 312 314 314 310 312 311 307 304 302 300 299 298 297 295 293 293 294 294 296 298 299 294 290 289 287 286 286 285 284 284 286 287 287
Wind_Speed
6 9 14 27 15 4 7 7 9 6 4 2 9 11 17 9 6 10 12 13 14 15 12 15 15 14 13 15 16 21 23 27 25 26 23 23 23 28 27 26 25 23 27 30
4 15 19 5 10 13 10 7 18 11 8 7 9 15 16 12 7 8 15 15 16 13 11 14 15 17 16 17 17 21 24 28 28 26 22 23 24 24 28 24 19 26 24 23
14 5 14 12 9 12 16 18 16 14 6 9 7 8 7 3 4 5 10 14 14 17 16 14 16 19 18 19 19 22 23 27 28 26 25 22 23 22 26 27 24 30 20 23
12 14 7 16 17 16 17 12 15 14 7 7 2 6 7 12 11 7 10 14 16 17 16 15 16 21 22 21 22 20 24 28 29 32 30 28 31 23 28 34 33 38 30 26
6 6 17 11 12 15 14 6 12 16 12 7 12 6 3 3 7 11 8 15 17 18 19 19 19 23 24 22 24 24 23 22 27 33 33 33 25 25 31 32 36 38 37 34
4 1 7 10 13 16 3 8 1 1 3 7 14 6 7 6 8 6 7 7 14 17 18 17 20 22 23 23 24 25 26 24 25 28 30 30 29 25 28 33 35 32 32 35
10 14 3 3 6 7 7 5 2 3 5 8 8 9 14 6 8 10 13 11 9 16 17 17 18 19 24 26 28 28 28 27 27 28 29 30 26 27 26 31 32 29 28 28
10 7 16 9 9 8 15 11 5 7 5 6 6 7 8 10 9 8 9 11 5 14 17 20 20 23 26 27 29 29 29 28 28 30 30 30 30 27 23 24 24 29 30 31
4 5 4 7 9 16 7 11 15 4 2 3 4 4 7 9 7 6 8 8 9 13 17 20 19 24 26 28 30 31 32 29 29 29 30 30 31 33 30 31 32 35 35 33
3 4 6 4 7 12 9 11 6 8 7 11 4 3 7 2 5 7 9 11 5 10 14 16 17 23 26 26 28 30 31 33 31 30 29 31 32 33 31 33 35 34 34 34
4 1 3 3 5 13 9 10 4 6 7 8 4 5 8 12 7 7 9 8 3 10 11 13 15 21 24 24 26 29 30 30 30 31 30 29 29 30 32 34 38 41 39 38
8 3 6 11 3 2 12 18 18 7 5 5 6 11 2 7 5 5 8 6 0 4 11 13 14 18 22 25 26 29 28 29 30 31 31 32 34 37 40 44 49 41 34 33
7 3 3 3 10 6 7 7 14 17 5 14 8 4 2 4 6 4 7 7 5 4 7 11 14 15 20 25 26 28 29 29 30 31 32 34 37 35 38 48 37 31 31 31
8 4 6 5 8 11 6 8 10 16 10 15 17 9 4 4 5 8 7 7 8 4 10 11 13 15 20 24 27 28 28 29 29 29 32 33 35 38 43 38 23 25 25 27
4 8 10 16 19 20 21 15 14 16 17 12 8 15 10 7 8 7 4 4 7 7 8 12 13 13 14 21 24 26 28 30 30 31 32 37 36 37 38 29 27 26 28 29
5 2 3 10 15 19 21 21 19 15 11 8 5 8 8 9 8 7 12 7 10 10 9 9 11 12 14 20 24 23 25 28 30 31 34 32 33 32 32 27 23 24 27 27
4 2 3 6 10 18 12 21 18 17 14 10 13 10 8 8 7 8 8 6 11 12 11 8 11 13 13 23 26 26 26 25 30 31 29 28 28 28 27 23 22 23 25 26
7 4 3 6 7 4 5 3 10 17 14 12 8 9 14 10 6 7 10 12 15 14 13 12 8 8 11 14 20 21 22 25 26 25 24 23 23 23 25 24 23 24 22 20
16 7 4 2 2 5 12 3 2 5 8 8 14 16 16 11 1 9 5 6 13 12 11 9 8 6 8 15 20 21 19 18 20 20 21 24 24 23 21 22 20 17 15 13
15 14 5 2 3 3 9 3 4 1 4 0 1 8 6 4 2 2 8 17 15 8 8 8 9 7 13 17 21 22 20 18 17 21 22 21 22 23 21 17 15 13 14 16
8 8 12 8 5 6 8 4 5 2 3 1 4 1 3 1 2 4 5 13 12 6 11 6 4 9 11 17 20 21 21 18 21 21 21 20 19 18 17 17 17 19 20 23
5 8 5 6 5 5 4 4 3 3 4 2 1 2 6 9 9 4 7 10 10 10 7 3 11 12 13 12 19 20 19 24 26 26 24 21 19 20 20 20 20 20 24 27
3 4 3 6 5 2 3 6 5 2 6 3 2 6 7 7 7 10 6 10 10 9 6 2 16 17 15 15 15 19 20 28 29 29 27 25 22 19 18 20 21 22 22 24
2 2 2 2 2 7 11 8 7 10 12 13 5 6 3 4 5 4 8 9 7 7 6 13 18 16 16 19 18 20 24 28 29 29 27 26 27 23 20 19 18 20 20 20
3 2 2 2 4 8 5 12 15 20 15 13 15 5 4 3 5 5 11 6 4 9 12 12 18 19 16 22 21 20 19 22 25 28 25 25 26 27 26 23 19 19 14 18
1 2 2 3 5 2 9 14 17 16 18 14 10 5 9 9 12 13 10 8 11 11 15 15 21 22 18 18 19 18 20 25 30 26 22 20 24 24 25 28 33 28 24 22
Wind_Direction
199 194 194 217 211 212 199 216 241 233 211 295 261 266 282 294 214 213 209 206 208 213 207 200 185 190 189 193 189 184 178 180 175 171 168 155 160 182 177 171 175 180 177 175
152 224 220 177 197 217 229 238 251 283 274 217 293 297 291 275 251 207 205 205 211 207 195 193 184 188 189 194 192 185 184 182 181 178 176 170 161 179 181 173 182 184 182 184
204 207 197 198 203 209 231 234 252 254 318 278 281 273 259 271 261 204 211 211 211 205 196 189 186 184 186 194 191 184 181 181 179 177 180 179 183 164 182 188 194 194 199 197
225 224 190 211 218 203 235 230 248 255 268 261 323 289 276 285 279 242 209 200 209 208 203 191 188 184 186 194 189 185 185 185 182 185 181 171 184 173 182 193 190 197 213 219
209 193 209 205 212 191 238 207 215 235 236 277 268 249 247 258 267 262 238 206 205 206 197 192 194 193 189 188 187 186 185 185 183 184 184 184 178 183 180 187 193 204 218 216
237 234 181 213 214 185 317 197 115 91 219 245 230 223 263 229 232 256 256 215 199 203 204 197 189 184 188 187 187 186 188 189 186 186 190 189 190 187 182 188 196 207 210 211
230 234 196 154 169 190 202 153 205 225 207 243 186 192 251 240 245 241 266 269 185 196 197 194 185 183 183 184 187 187 188 192 190 190 192 196 198 198 195 196 200 201 204 208
204 226 197 180 193 180 205 206 200 242 235 260 156 222 239 231 248 248 260 274 179 187 196 198 194 188 185 184 186 188 192 193 194 193 195 199 202 205 205 202 203 212 217 220
200 248 237 214 188 184 181 207 207 255 210 286 208 264 271 254 259 265 272 261 227 189 194 202 191 193 190 186 187 189 193 196 197 196 196 199 202 206 209 212 215 219 224 227
317 256 222 229 202 228 197 148 166 220 234 245 217 258 237 275 274 294 295 276 239 194 192 197 195 193 195 193 191 190 194 195 196 196 197 200 204 207 213 217 221 225 230 231
341 189 299 166 185 198 202 216 204 197 210 235 252 234 220 230 237 279 297 292 247 187 185 203 200 194 194 192 193 195 194 193 194 196 197 199 202 208 214 222 228 232 236 238
18 304 233 257 236 225 230 217 220 225 186 236 255 234 218 235 231 253 287 310 14 219 183 194 197 191 191 194 196 202 198 198 194 190 191 196 202 209 215 222 228 230 234 238
11 3 304 253 278 253 235 214 226 237 257 233 229 238 236 234 264 251 282 310 322 157 187 185 186 190 197 197 198 202 204 201 196 193 193 200 208 209 214 222 224 227 231 234
130 245 268 268 303 317 235 212 210 206 224 238 240 238 235 246 253 290 284 284 294 256 177 187 192 190 196 199 201 201 205 203 198 195 198 205 210 215 227 232 231 226 232 237
227 252 262 263 273 284 271 267 232 211 226 215 224 227 222 240 253 273 276 265 281 264 206 196 197 200 191 195 202 204 201 200 200 197 200 210 214 219 228 231 234 238 243 247
332 287 282 275 270 271 261 255 250 243 232 240 227 251 248 255 268 269 277 256 261 267 252 220 191 189 196 196 197 199 202 197 196 202 208 210 215 219 225 230 235 237 246 249
279 251 278 276 320 309 239 239 237 240 239 239 243 240 228 233 251 276 291 316 274 256 253 237 213 199 193 192 190 193 197 192 194 202 206 209 213 218 222 226 230 238 248 252
240 262 287 301 331 224 318 286 246 222 228 214 245 230 228 240 237 269 266 267 270 255 248 242 226 223 195 178 180 176 181 188 193 199 201 200 201 203 211 218 226 230 227 229
207 197 254 249 267 303 283 340 265 191 245 236 247 259 257 257 261 290 318 304 271 275 247 255 274 259 160 159 159 156 162 170 178 178 178 184 188 195 199 197 197 200 197 194
196 199 203 190 267 241 229 246 305 147 293 304 194 280 280 207 206 305 359 323 292 294 287 247 233 192 163 160 155 146 144 145 149 159 171 181 186 186 184 186 179 167 166 151
163 190 218 232 246 279 261 273 310 186 264 290 360 359 171 246 136 312 335 341 322 350 333 320 154 143 152 154 149 139 137 135 148 160 160 161 164 163 164 153 153 150 142 135
181 174 187 222 237 252 354 357 339 300 315 7 285 239 69 16 342 313 53 6 356 18 7 307 98 102 120 139 138 128 120 132 137 136 132 131 132 135 140 143 139 141 140 130
238 212 161 204 218 249 265 256 267 306 290 240 98 309 100 82 306 308 49 31 24 39 40 68 90 85 81 100 113 112 119 129 128 123 118 119 121 123 129 133 134 131 135 125
258 209 245 359 56 332 326 336 6 344 327 312 292 259 262 287 221 140 4 62 46 47 79 77 77 75 65 85 102 116 127 131 126 116 115 119 118 118 119 121 128 131 132 125
229 347 292 263 288 318 334 344 339 329 333 309 300 299 350 247 88 122 96 66 87 89 66 82 90 79 78 92 98 110 110 115 106 103 105 103 104 107 105 99 104 114 125 146
295 305 213 263 39 339 288 322 345 332 325 320 312 86 38 92 91 82 74 73 71 61 73 77 85 82 72 78 86 97 121 130 122 104 98 98 100 97 95 93 84 82 92 98